Погода в Софийске

Россия / Хабаровский край     51°34′15″N   139°50′51″E
темп.,
°C
ветер,
м/с
пор.,
м/с
влажн.,
%
обл.,
%
осадки,
мм/ч
давл.,
гПа
погр.,
м
11 августа, чт
чт1101:00+14ю228299 0.0 99725
04:00+13ююв1184100 0.0 99716
07:00+14з1190100 0.4 99847
10:00+16всв018758 0.9 998140
13:00+19зюз25766 2.5 998978
16:00+20юз357323 5.1 9981148
19:00+17юз228615 2.0 99939
22:00+14ююз119012 2.1 100011
12 августа, пт
пт1201:00+13з119398 0.0 100011
04:00+12сз119777 0.0 100111
07:00+13ссз119694 0.3 1002105
10:00+14с129397 0.6 1002264
13:00+18с117766 0.1 1001715
16:00+19ссз227940 2.1 1001767
19:00+16ссв228981 1.7 100269
22:00+12с119229 2.0 100411
13 августа, сб
сб1301:00+11юз009477 0.0 100510
04:00+13з119494 0.0 100611
07:00+13юз119319 0.0 100773
10:00+18з237395 0.0 1007753
13:00+21з235710 0.1 10071272
16:00+22ссв115711 0.3 10061241
19:00+19в22825 0.6 100624
22:00+14юв229361 0.1 100732
14 августа, вс
вс1401:00+13ююв21959 0.0 100726
04:00+12ююв11955 0.0 100711
07:00+14юв01895 0.0 100763
10:00+20св01685 0.0 1007596
13:00+24св22568 0.0 10061368
16:00+24св125448 0.3 10051258
19:00+20юв228516 0.8 100541
22:00+15юв229231 1.8 100616
15 августа, пн
пн1501:00+14юв229461 0.8 100728
04:00+12юв11955 0.8 100712
07:00+14вюв11945 0.0 100883
10:00+18вюв227872 0.0 1007662
13:00+21вюв236678 0.0 1006866
16:00+22юв3464100 0.0 1005935
19:00+17вюв3585100 0.0 1005243
22:00+14вюв359399 0.0 1004126